Regional Weather Roundup
Issued by NWS

Home | Current Version | Previous Version | Graphics & Text | Print | Product List | Glossary On
Versions: 1 2 3 4 5 6 7 8 9 10 11 12 13 14 15 16 17 18 19 20 21 22 23 24 25 26 27 28 29 30 31 32 33 34 35 36 37 38 39 40 41 42 43 44 45 46 47 48 49 50
000
ASUS45 KTFX 300010
RWRMT
MONTANA REGIONAL WEATHER ROUNDUP
NATIONAL WEATHER SERVICE GREAT FALLS MT
600 PM MDT WED JUL 29 2015

NOTE: "FAIR" INDICATES FEW OR NO CLOUDS BELOW 12000 FEET WITH NO
SIGNIFICANT WEATHER AND/OR OBSTRUCTIONS TO VISIBILITY.

MTZ001>007-043-300100-
WEST OF THE DIVIDE

CITY           SKY/WX    TMP DP  RH WIND       PRES   REMARKS
KALISPELL      CLEAR     80  42  25 SE13      30.12F
MISSOULA         N/A     82  38  20 VRB5      30.17F
BUTTE          SUNNY     74  36  25 W8        30.30S
MULLAN PASS    SUNNY     70  36  28 N5        30.35S
DEER LODGE       N/A     75  36  23 CALM      30.29S
EUREKA           N/A     82  36  18 W14G20    30.12S
HAMILTON         N/A     82  39  21 SE7       30.19F
LIBBY            N/A     84  34  16 W8        30.14S
PLAINS           N/A     87  41  19 SW12      30.13F
RONAN            N/A     82  39  21 SE8       30.19F
$$

MTZ008-052>055-300100-
SOUTHWEST MONTANA

CITY           SKY/WX    TMP DP  RH WIND       PRES   REMARKS
BOZEMAN        SUNNY     78  35  21 NW5       30.24F
DILLON         SUNNY     77  44  30 W7        30.25F
W YELLOWSTONE  SUNNY     70  32  24 SW9G18    30.38S
TWIN BRIDGES     N/A     78  37  22 NW1       30.22F
$$

MTZ009-010-012-014-046-048-049-054-300100-
EAST SLOPES AND CENTRAL MONTANA

CITY           SKY/WX    TMP DP  RH WIND       PRES   REMARKS
CUT BANK       MOSUNNY   75  37  25 W12       30.14R
GREAT FALLS    SUNNY     82  35  18 W13G21    30.14F
MALMSTROM AFB  SUNNY     80  36  20 W8G28     30.14F
HELENA         SUNNY     82  37  20 W12       30.18F
$$

MTZ011-013-016-021-045-047-050-051-300100-
NORTH CENTRAL MONTANA

CITY           SKY/WX    TMP DP  RH WIND       PRES   REMARKS
HAVRE          SUNNY     83  40  21 W13       30.06S
LEWISTOWN      SUNNY     79  37  22 NW10G17   30.19S
CHINOOK          N/A     82  41  23 W7        30.05F
FORT BENTON      N/A     84  36  17 W13G18    30.10S
$$

MTZ017>020-022>027-061-062-300100-
NORTHEAST MONTANA

CITY           SKY/WX    TMP DP  RH WIND       PRES   REMARKS
GLASGOW        MOSUNNY   81  41  24 W10       30.07F
JORDAN           N/A     82  40  22 W13       30.11F
SIDNEY         SUNNY    N/A N/A N/A NW14G21   30.07R
WOLF POINT     MOSUNNY   85  42  22 W10       30.07S
MALTA            N/A     81  44  26 W10       30.04F
PLENTYWOOD       N/A     79  46  31 NW13G20   30.06S
POPLAR           N/A     81  45  28 W10       30.07S
SCOBEY           N/A     76  49  38 W8        30.07S
$$

MTZ028>42-056>058-300100-
SOUTHCENTRAL AND SOUTHEAST MONTANA

CITY           SKY/WX    TMP DP  RH WIND       PRES   REMARKS
BAKER          MOSUNNY   81  39  22 NW16G23   30.14F
BILLINGS       MOSUNNY   84  30  14 W16G25    30.17F
LIVINGSTON     SUNNY     80  36  20 W17       30.23S
MILES CITY     MOSUNNY   84  40  21 NW10G20   30.11F
EKALAKA          N/A     77  34  21 W13       30.14F
FORSYTH          N/A     82  37  20 W8G17     30.12F
LAUREL           N/A     84  31  15 W8        30.14F
ROUNDUP          N/A     81  33  17 W14       30.06F
$$

REGIONAL REPORTS...DAKOTAS

CITY           SKY/WX    TMP DP  RH WIND       PRES   REMARKS
WILLISTON      SUNNY     81  43  26 NW21G26   30.06R
MINOT          SUNNY     80  48  32 W21G30    29.98R
DICKINSON      SUNNY     79  44  28 NW18      30.08S
BEACH          FAIR      79  37  22 NW14G20   30.12F
CROSBY         FAIR      75  48  38 NW21      30.03S
BISMARCK       SUNNY     82  46  28 W16G28    30.03F
GRAND FORKS    MOSUNNY   80  54  40 NW15G31   29.85R
FARGO          SUNNY     80  54  40 W15       29.92R
BUFFALO SD       N/A     81  36  19 W17       30.08F
RAPID CITY     SUNNY     83  42  23 CALM      30.16F
$$

REGIONAL REPORTS...WYOMING/IDAHO/WASHINGTON

CITY           SKY/WX    TMP DP  RH WIND       PRES   REMARKS
GILLETTE       SUNNY     80  32  17 VRB3      30.21F
SHERIDAN       SUNNY     82  35  18 CALM      30.20F
BUFFALO WY     SUNNY     79  35  20 N8        30.25S
CODY           SUNNY     79  34  19 SE5       30.24S
YELLOWSTONE LA   N/A     68  26  20 MISG      30.46S
IDAHO FALLS    SUNNY     80  33  18 NW5       30.28F
SALMON         SUNNY     81  43  26 NW7       30.18F
BOISE          SUNNY     89  30  12 N6        30.14F
SPOKANE        MOSUNNY   86  31  13 SW6       30.14F
$$

REGIONAL REPORTS...ALBERTA

CITY           SKY/WX    TMP DP  RH WIND       PRES   REMARKS
EDMONTON       PTSUNNY   68  46  45 W14       30.05R
CALGARY        MOSUNNY   73  39  29 W18G24    30.10R
LETHBRIDGE     MOSUNNY   77  43  29 NE7       30.07R
MEDICINE HAT   PTSUNNY   81  39  22 W15G22    30.04R
CARDSTON         N/A     79  37  22 W12G18      N/A
MILK RIVER       N/A     81  37  21 W20G25      N/A
$$

REGIONAL REPORTS...SASKATCHEWAN

CITY           SKY/WX    TMP DP  RH WIND       PRES   REMARKS
SWIFT CURRENT  TSTM      64  55  72 CALM      30.06R
REGINA         MOSUNNY   77  52  41 NW17G25   30.00R
SASKATOON      PTSUNNY   75  52  43 NW15G25   29.98R
CYPRESS HILLS    N/A     70  37  30 W10G20      N/A
VAL MARIE        N/A     79  43  27 W14         N/A
ROCKGLEN         N/A     66  48  52 W7          N/A
ASSINIBOIA       N/A     68  50  52 W12G18      N/A
$$


USA.gov is the U.S. government's official web portal to all federal, state and local government web resources and services.